FW5282 Weather Reports


Display with metric or nautical units.
time (UTC)temp
F
wind
direction
speed
MPH
gust
MPH
rain 1hr
in
rain 24hr
in
rain mn
in
humidity
%
barometer
mb
20260505053030 55 53 1.0 3.0 0.04 0.39 0.06 97 1006.0
20260505052536 56 46 1.0 3.0 0.04 0.39 0.06 97 1006.0
20260505052040 56 37 1.0 4.0 0.00 0.35 0.05 97 1006.0
20260505051529 56 45 2.0 4.0 0.00 0.35 0.05 97 1006.0
20260505051030 55 39 1.0 4.0 0.00 0.35 0.05 97 1006.0
20260505050544 55 19 2.0 4.0 0.00 0.35 0.05 97 1006.0
20260505041536 55 53 2.0 5.0 0.08 0.39 0.05 97 1006.3
20260505041034 55 51 2.0 4.0 0.08 0.39 0.05 97 1006.2
20260505040553 55 49 2.0 4.0 0.08 0.39 0.05 97 1006.3
20260505040046 55 55 2.0 3.0 0.08 0.43 0.05 97 1006.3
20260505035532 55 40 1.0 4.0 0.08 0.39 0.04 97 1006.4
20260505035030 55 41 1.0 3.0 0.08 0.39 0.04 97 1006.5
20260505034538 55 54 2.0 4.0 0.16 0.39 0.04 97 1006.5
20260505034041 55 36 2.0 4.0 0.20 0.39 0.04 97 1006.6
20260505033533 55 49 2.0 4.0 0.20 0.39 0.04 97 1006.6
20260505033046 55 34 2.0 4.0 0.20 0.39 0.04 97 1006.7
20260505032531 55 47 1.0 4.0 0.20 0.39 0.04 97 1006.7
20260505032034 55 54 1.0 6.0 0.20 0.39 0.04 97 1006.8
20260505031540 55 52 2.0 6.0 0.16 0.35 0.03 97 1006.8
20260505031047 55 60 2.0 6.0 0.16 0.35 0.03 97 1006.9
20260505030534 55 46 4.0 8.0 0.16 0.35 0.03 97 1006.9
20260505030030 55 30 3.0 8.0 0.16 0.59 0.03 97 1006.8
20260505025540 55 52 3.0 6.0 0.12 0.55 0.02 97 1006.9
20260505025049 55 33 2.0 5.0 0.08 0.51 0.02 97 1007.1
20260505024549 55 23 2.0 3.0 0.04 0.47 0.01 97 1007.1
20260505024034 55 5 2.0 3.0 0.00 0.43 0.00 97 1007.3
20260505023538 55 349 1.0 2.0 0.00 0.43 0.00 97 1007.4
20260505023040 55 25 0.0 1.0 0.00 0.43 0.00 97 1007.4
20260505022543 55 25 0.0 1.0 0.00 0.43 0.00 97 1007.4
20260505022103 55 25 0.0 0.0 0.00 0.43 0.00 97 1007.4
20260505021530 55 25 0.0 2.0 0.00 0.43 0.00 97 1007.4
20260505021040 55 25 0.0 2.0 0.00 0.43 0.00 97 1007.5
20260505020554 55 30 1.0 2.0 0.00 0.43 0.00 97 1007.4
20260505020032 55 30 1.0 3.0 0.00 0.43 0.00 97 1007.5
20260505015604 55 32 1.0 3.0 0.00 0.43 0.00 97 1007.4
20260505015031 55 40 1.0 3.0 0.00 0.43 0.00 97 1007.5
20260505014537 54 44 1.0 2.0 0.00 0.43 0.00 96 1007.4
20260505014055 54 350 0.0 2.0 0.00 0.43 0.00 96 1007.6
20260505013544 54 332 1.0 3.0 0.00 0.43 0.00 97 1007.6
20260505013033 54 345 0.0 3.0 0.00 0.43 0.00 96 1007.6
20260505012544 54 344 2.0 3.0 0.00 0.43 0.00 96 1007.4
20260505012043 54 349 2.0 4.0 0.00 0.43 0.00 96 1007.5
20260505011558 54 5 2.0 4.0 0.00 0.43 0.00 96 1007.6
20260505011030 54 350 2.0 4.0 0.00 0.43 0.00 96 1007.7
20260505010600 54 10 2.0 4.0 0.00 0.43 0.00 96 1007.7
20260505010038 54 19 1.0 2.0 0.00 0.43 0.00 96 1007.7
20260505005541 55 22 1.0 2.0 0.00 0.43 0.00 96 1007.7
20260505005036 55 19 1.0 3.0 0.00 0.43 0.00 96 1007.9
20260505004542 55 360 1.0 3.0 0.00 0.43 0.00 96 1008.0
20260505004103 55 355 1.0 2.0 0.00 0.43 0.00 96 1008.1
20260505003529 55 5 1.0 2.0 0.00 0.43 0.00 96 1008.2
20260505003105 55 355 1.0 1.0 0.00 0.43 0.00 96 1008.3
20260505002530 55 27 0.0 1.0 0.00 0.43 0.00 96 1008.3
20260505002044 55 32 0.0 2.0 0.00 0.43 0.00 96 1008.3
20260505001528 55 32 0.0 2.0 0.00 0.43 0.00 96 1008.3
20260505001040 55 360 0.0 0.0 0.00 0.43 0.00 96 1008.4
20260505000528 55 360 0.0 1.0 0.00 0.43 0.00 96 1008.4
20260505000056 55 360 0.0 3.0 0.00 0.43 0.09 96 1008.4
20260504235530 55 355 1.0 2.0 0.00 0.43 0.09 96 1008.3
20260504235044 55 13 0.0 2.0 0.00 0.43 0.09 96 1008.4
20260504234533 55 54 0.0 3.0 0.00 0.43 0.09 96 1008.4
20260504234030 55 40 1.0 3.0 0.00 0.43 0.09 96 1008.3
20260504233535 55 19 2.0 3.0 0.00 0.43 0.09 96 1008.2
20260504233036 55 13 1.0 3.0 0.00 0.43 0.09 96 1008.3
20260504232540 56 19 1.0 3.0 0.00 0.43 0.09 96 1008.3
20260504232043 56 26 1.0 3.0 0.00 0.43 0.09 96 1008.4
20260504231530 56 20 2.0 3.0 0.00 0.43 0.09 96 1008.4
20260504231044 56 11 1.0 4.0 0.00 0.43 0.09 96 1008.5
20260504230531 56 355 2.0 4.0 0.00 0.43 0.09 96 1008.5
20260504230046 56 355 2.0 4.0 0.00 0.43 0.09 96 1008.6
20260504225533 56 355 1.0 3.0 0.00 0.43 0.09 96 1008.7
20260504225030 56 346 1.0 4.0 0.00 0.43 0.09 96 1008.6
20260504224542 56 331 2.0 4.0 0.00 0.43 0.09 96 1008.5
20260504224042 56 350 2.0 5.0 0.00 0.43 0.09 96 1008.6
20260504223551 56 360 2.0 5.0 0.00 0.43 0.09 96 1008.5
20260504223040 56 360 1.0 5.0 0.00 0.43 0.09 95 1008.7
20260504222545 56 5 1.0 5.0 0.00 0.43 0.09 95 1008.8
20260504222043 56 355 2.0 4.0 0.00 0.43 0.09 95 1008.8
20260504221559 57 355 0.0 1.0 0.00 0.43 0.09 95 1009.1
20260504221039 57 355 0.0 1.0 0.00 0.43 0.09 95 1009.0
20260504220540 57 17 0.0 1.0 0.00 0.43 0.09 95 1009.1
20260504220032 57 9 0.0 1.0 0.00 0.43 0.09 95 1009.1
20260504215538 57 9 0.0 2.0 0.00 0.43 0.09 95 1009.2
20260504215040 57 360 0.0 2.0 0.00 0.43 0.09 95 1009.2
20260504214547 57 16 0.0 1.0 0.00 0.43 0.09 95 1009.3
20260504214032 57 17 0.0 1.0 0.00 0.43 0.09 95 1009.4
20260504213602 57 11 0.0 1.0 0.00 0.43 0.09 94 1009.4
20260504213053 57 12 0.0 2.0 0.00 0.43 0.09 94 1009.3
20260504212537 57 355 1.0 2.0 0.00 0.43 0.09 94 1009.4
20260504212045 57 355 0.0 2.0 0.00 0.43 0.09 94 1009.4
20260504211531 58 11 0.0 2.0 0.00 0.43 0.09 93 1009.5
20260504211034 58 17 0.0 4.0 0.00 0.43 0.09 93 1009.5
20260504210543 58 19 1.0 4.0 0.00 0.43 0.09 93 1009.5
20260504210036 58 355 1.0 5.0 0.00 0.43 0.09 93 1009.5
20260504205544 58 355 2.0 5.0 0.00 0.43 0.09 93 1009.5
20260504205108 58 360 2.0 4.0 0.00 0.43 0.09 93 1009.4
20260504204533 58 355 2.0 4.0 0.00 0.43 0.09 92 1009.5
20260504204031 58 360 1.0 3.0 0.00 0.43 0.09 92 1009.5
20260504203542 59 17 0.0 2.0 0.00 0.43 0.09 92 1009.5
20260504203041 59 16 0.0 2.0 0.00 0.43 0.09 93 1009.6
20260504202549 59 37 0.0 3.0 0.00 0.43 0.09 92 1009.7
20260504202047 59 23 1.0 4.0 0.00 0.43 0.09 92 1009.7
20260504201535 59 37 2.0 4.0 0.00 0.43 0.09 92 1009.6
20260504201032 59 34 1.0 3.0 0.00 0.43 0.09 91 1009.6
20260504200537 59 42 1.0 2.0 0.00 0.43 0.09 91 1009.6
20260504200034 60 44 0.0 3.0 0.00 0.43 0.09 91 1009.6
20260504195547 60 44 2.0 5.0 0.00 0.43 0.09 91 1009.6
20260504195032 60 28 2.0 6.0 0.00 0.43 0.09 90 1009.6
20260504194607 60 44 3.0 6.0 0.00 0.43 0.09 90 1009.5
20260504194049 60 44 2.0 6.0 0.00 0.43 0.09 89 1009.5
20260504193534 60 53 2.0 5.0 0.00 0.43 0.09 88 1009.4
20260504193036 60 42 2.0 4.0 0.00 0.43 0.09 88 1009.4
20260504192539 60 36 3.0 4.0 0.00 0.43 0.09 88 1009.2
20260504192106 61 51 3.0 4.0 0.00 0.43 0.09 88 1009.2
20260504191529 61 17 2.0 5.0 0.00 0.43 0.09 87 1009.2
20260504191035 61 27 3.0 4.0 0.00 0.43 0.09 87 1009.2
20260504190608 61 34 2.0 4.0 0.00 0.43 0.09 87 1009.3
20260504190040 61 38 2.0 4.0 0.00 0.43 0.09 87 1009.3
20260504185607 61 49 3.0 4.0 0.00 0.43 0.09 87 1009.3
20260504185038 62 49 1.0 4.0 0.00 0.43 0.09 87 1009.4
20260504184541 62 48 2.0 4.0 0.00 0.43 0.09 87 1009.3
20260504184033 62 53 2.0 3.0 0.00 0.43 0.09 86 1009.2
20260504183606 62 35 2.0 3.0 0.00 0.43 0.09 86 1009.3
20260504183054 62 37 2.0 3.0 0.00 0.43 0.09 85 1009.2
20260504182541 62 41 1.0 3.0 0.00 0.43 0.09 85 1009.4
20260504182100 62 49 1.0 4.0 0.00 0.43 0.09 85 1009.3
20260504181543 63 34 2.0 4.0 0.00 0.43 0.09 85 1009.3
20260504181053 63 40 1.0 4.0 0.00 0.43 0.09 84 1009.3
20260504180539 63 42 2.0 3.0 0.00 0.43 0.09 85 1009.2
20260504180033 63 38 2.0 3.0 0.00 0.43 0.09 84 1009.1
20260504175552 63 40 1.0 4.0 0.00 0.43 0.09 84 1009.1
20260504175038 63 15 2.0 4.0 0.00 0.43 0.09 83 1009.0
20260504174545 63 5 3.0 4.0 0.00 0.43 0.09 83 1008.9
20260504174035 63 39 2.0 3.0 0.00 0.43 0.09 82 1008.9
20260504173034 64 75 2.0 5.0 0.00 0.43 0.09 80 1008.9
20260504172545 64 11 2.0 4.0 0.00 0.43 0.09 82 1008.9
20260504172035 64 46 1.0 4.0 0.00 0.43 0.09 82 1008.9
20260504171536 64 32 1.0 3.0 0.00 0.43 0.09 80 1008.9
20260504171106 64 40 1.0 3.0 0.00 0.43 0.09 80 1008.9
20260504170529 64 5 1.0 3.0 0.00 0.43 0.09 80 1009.0
20260504151101 65 76 1.0 6.0 0.00 0.51 0.09 82 1009.6
20260504150526 65 40 1.0 6.0 0.00 0.51 0.09 82 1009.6
20260504141027 65 92 4.0 8.0 0.00 0.94 0.09 79 1010.0
20260504140537 65 105 4.0 8.0 0.00 0.94 0.09 78 1010.0
20260504130602 64 80 2.0 4.0 0.00 0.94 0.09 85 1010.4
20260504110529 62 123 5.0 9.0 0.04 0.94 0.09 90 1011.0
20260504100537 59 139 0.0 1.0 0.00 0.91 0.08 93 1011.5
20260504081547 58 200 1.0 3.0 0.00 0.91 0.08 94 1011.3
20260504081030 58 191 1.0 4.0 0.00 0.91 0.08 94 1011.3
20260504080533 58 223 1.0 4.0 0.00 0.91 0.08 94 1011.3